Mount Shasta, CA

7:16 AM PDT on May 29, 2017 (GMT -0700)
Mount Shasta

Weather History for KMHS - June, 2012

Change the Weather History Date:

Friday, June 8, 2012

  Actual Average Record
Temperature  
Mean Temperature 53 °F 60 °F  
Max Temperature 65 °F 75 °F 95 °F (2015)
Min Temperature 40 °F 45 °F 29 °F (1950)
Degree Days  
Heating Degree Days 12 6  
Month to date heating degree days 74 53  
Since 1 June heating degree days 74 53  
Since 1 July heating degree days 5413 5605  
Cooling Degree Days 0 1  
Month to date cooling degree days 9 8  
Year to date cooling degree days 18 16  
Since 1 June cooling degree days 9 8  
Growing Degree Days 2 (Base 50)    
Moisture  
Dew Point 32 °F    
Average Humidity 51    
Maximum Humidity 79    
Minimum Humidity 30    
Precipitation  
Precipitation 0.00 in 0.04 in 1.13 in (1937)
Month to date precipitation 1.11 0.44  
Year to date precipitation 23.82 25.84  
Sea Level Pressure  
Sea Level Pressure 30.00 in    
Wind  
Wind Speed 6 mph (NNW)    
Max Wind Speed 13 mph    
Max Gust Speed 29 mph    
Visibility 10 miles    
Events      
T = Trace of Precipitation, MM = Missing Value Source: NWS Daily Summary

Daily Weather History Graph

Daily Weather History Graph

Search for Another Location

Airport or City:

Trip Planner

Search our weather history database for the weather conditions in past years. The results will help you decide how hot, cold, wet, or windy it might be!

Date:

Astronomy

Jun. 08, 2012 Rise Set
Actual Time 5:35 AM PDT 8:41 PM PDT
Civil Twilight 5:02 AM PDT 9:14 PM PDT
Nautical Twilight 4:19 AM PDT 9:57 PM PDT
Astronomical Twilight 3:28 AM PDT 10:48 PM PDT
Moon No Moon Rise 10:24 AM PDT (6/8)
Length of Visible Light 16h 12m
Length of Day
15h 05m
Waning Gibbous, 76% of the Moon is Illuminated
Jun 8
Waning Gibbous
Jun 11
Last Quarter
Jun 19
New
Jun 26
First Quarter
Jul 3
Full

Hourly Weather History & Observations

Time (PDT) Temp. Windchill Dew Point Humidity Pressure Visibility Wind Dir Wind Speed Gust Speed Precip Events Conditions
12:56 AM 42.1 °F 40.2 °F 34.0 °F 73% 30.02 in 10.0 mi NE 3.5 mph - N/A   Clear
1:56 AM 39.9 °F - 33.1 °F 77% 30.01 in 10.0 mi Calm Calm - N/A   Clear
2:56 AM 44.1 °F 41.5 °F 35.1 °F 71% 29.99 in 10.0 mi Variable 4.6 mph - N/A   Clear
3:56 AM 44.1 °F 40.1 °F 35.1 °F 71% 29.97 in 10.0 mi WNW 6.9 mph - N/A   Clear
4:56 AM 43.0 °F 41.3 °F 35.1 °F 74% 29.98 in 10.0 mi Variable 3.5 mph - N/A   Clear
5:56 AM 39.9 °F 37.8 °F 34.0 °F 79% 30.01 in 10.0 mi Variable 3.5 mph - N/A   Clear
6:56 AM 43.0 °F - 33.1 °F 68% 30.02 in 10.0 mi Calm Calm - N/A   Clear
7:56 AM 46.9 °F - 34.0 °F 61% 30.01 in 10.0 mi Variable 5.8 mph - N/A   Clear
8:56 AM 48.9 °F - 33.1 °F 54% 30.04 in 10.0 mi NW 10.4 mph 25.3 mph N/A   Clear
9:56 AM 53.1 °F - 33.1 °F 47% 30.04 in 10.0 mi Variable 6.9 mph 19.6 mph N/A   Clear
10:56 AM 55.9 °F - 32.0 °F 40% 30.02 in 10.0 mi Variable 6.9 mph - N/A   Clear
11:56 AM 59.0 °F - 30.9 °F 35% 30.01 in 10.0 mi Variable 5.8 mph - N/A   Clear
12:56 PM 62.1 °F - 32.0 °F 32% 29.99 in 10.0 mi Calm Calm - N/A   Clear
1:56 PM 64.9 °F - 34.0 °F 32% 29.98 in 10.0 mi Variable 4.6 mph - N/A   Clear
2:56 PM 63.0 °F - 30.9 °F 30% 29.98 in 10.0 mi Variable 6.9 mph - N/A   Clear
3:56 PM 63.0 °F - 30.9 °F 30% 29.97 in 10.0 mi Variable 6.9 mph - N/A   Clear
4:56 PM 62.1 °F - 32.0 °F 32% 29.96 in 10.0 mi Variable 6.9 mph - N/A   Clear
5:56 PM 59.0 °F - 30.9 °F 35% 29.97 in 10.0 mi Variable 3.5 mph - N/A   Clear
6:56 PM 57.9 °F - 30.9 °F 36% 29.97 in 10.0 mi North 9.2 mph 18.4 mph N/A   Clear
7:56 PM 54.0 °F - 30.9 °F 41% 29.97 in 10.0 mi Variable 6.9 mph 17.3 mph N/A   Clear
8:56 PM 51.1 °F - 30.9 °F 46% 29.98 in 10.0 mi Variable 6.9 mph - N/A   Clear
9:56 PM 46.9 °F - 30.0 °F 52% 30.02 in 10.0 mi NW 9.2 mph - N/A   Clear
10:56 PM 45.0 °F 40.6 °F 30.0 °F 56% 30.04 in 10.0 mi WNW 8.1 mph - N/A   Clear
11:56 PM 44.1 °F 40.8 °F 28.9 °F 55% 30.04 in 10.0 mi Variable 5.8 mph - N/A   Clear